WA2QAO Weather Reports


time (UTC)temp
F
wind
direction
speed
knots
gust
knots
rain 1hr
in
rain 24hr
in
rain mn
in
humidity
%
barometer
mb
20260505071035 0 338 0.0 0.9 0.00 0.00 0.00 1010.9
20260505070532 0 330 0.0 0.9 0.00 0.00 0.00 1010.8
20260505070027 0 333 0.0 0.0 0.00 0.00 0.00 1010.6
20260505065524 0 333 0.0 0.9 0.00 0.00 0.00 1010.9
20260505065020 0 336 0.0 0.9 0.00 0.00 0.00 1010.5
20260505064517 0 339 0.0 0.9 0.00 0.00 0.00 1010.6
20260505064016 0 337 0.0 0.9 0.00 0.00 0.00 1010.7
20260505063513 0 288 0.0 0.0 0.00 0.00 0.00 1010.8
20260505063008 0 338 0.0 0.0 0.00 0.00 0.00 1010.8
20260505062505 0 333 0.0 0.0 0.00 0.00 0.00 1010.8
20260505062002 0 347 0.0 0.0 0.00 0.00 0.00 1010.6
20260505061500 0 344 0.0 0.0 0.00 0.00 0.00 1010.7
20260505060957 0 338 0.0 0.0 0.00 0.00 0.00 1010.7
20260505060455 0 334 0.0 0.0 0.00 0.00 0.00 1011.0
20260505055951 0 339 0.0 0.0 0.00 0.00 0.00 1010.8
20260505055447 0 333 0.0 0.0 0.00 0.00 0.00 1010.5
20260505054944 0 334 0.0 0.0 0.00 0.00 0.00 1010.4
20260505054441 0 339 0.0 0.0 0.00 0.00 0.00 1010.6
20260505053939 0 332 0.0 0.0 0.00 0.00 0.00 1010.4
20260505053436 0 334 0.0 0.0 0.00 0.00 0.00 1010.7
20260505052932 0 350 0.0 0.0 0.00 0.00 0.00 1010.7
20260505052430 0 334 0.0 0.0 0.00 0.00 0.00 1010.5
20260505051927 0 336 0.0 0.0 0.00 0.00 0.00 1010.6
20260505051424 0 284 0.9 1.7 0.00 0.00 0.00 1010.5
20260505050922 0 342 0.0 0.9 0.00 0.00 0.00 1010.5
20260505050420 0 336 0.0 0.9 0.00 0.00 0.00 1010.5
20260505041347 0 331 0.0 0.9 0.00 0.00 0.00 1010.4
20260505040844 0 340 0.0 0.9 0.00 0.00 0.00 1010.3
20260505040342 0 339 0.0 0.0 0.00 0.00 0.00 1010.2
20260505035839 0 337 0.0 0.0 0.00 0.00 0.00 1010.3
20260505035334 0 336 0.0 0.0 0.00 0.00 0.00 1010.1
20260505034832 0 335 0.0 0.0 0.00 0.00 0.00 1010.2
20260505034328 0 335 0.0 0.0 0.00 0.00 0.00 1010.0
20260505033826 0 342 0.0 0.0 0.00 0.00 0.00 1010.2
20260505033322 0 336 0.0 0.0 0.00 0.00 0.00 1010.1
20260505032821 0 336 0.0 0.0 0.00 0.00 0.00 1010.3
20260505032316 0 338 0.0 0.9 0.00 0.00 0.00 1009.9
20260505031814 0 335 0.0 0.0 0.00 0.00 0.00 1010.2
20260505031310 0 332 0.0 0.0 0.00 0.00 0.00 1009.9
20260505030808 0 339 0.0 0.0 0.00 0.00 0.00 1009.7
20260505030304 0 335 0.0 0.9 0.00 0.00 0.00 1009.9
20260505025759 0 332 0.0 0.0 0.00 0.00 0.00 1010.0
20260505025257 0 345 0.0 0.0 0.00 0.00 0.00 1009.9
20260505024755 0 339 0.0 0.0 0.00 0.00 0.00 1009.8
20260505024252 0 5 0.9 0.9 0.00 0.00 0.00 1009.9
20260505023750 0 334 0.0 0.0 0.00 0.00 0.00 1010.0
20260505023246 0 336 0.0 0.0 0.00 0.00 0.00 1009.9
20260505022744 0 329 0.0 0.0 0.00 0.00 0.00 1010.0
20260505022241 0 329 0.0 1.7 0.00 0.00 0.00 1010.0
20260505021737 0 332 0.0 0.9 0.00 0.00 0.00 1010.0
20260505021235 0 344 0.0 0.0 0.00 0.00 0.00 1010.0
20260505020730 0 335 0.0 0.9 0.00 0.00 0.00 1010.0
20260505020225 0 339 0.0 0.9 0.00 0.00 0.00 1009.8
20260505015723 0 334 0.0 0.9 0.00 0.00 0.00 1010.0
20260505015220 0 332 0.9 0.9 0.00 0.00 0.00 1010.1
20260505014717 0 337 0.0 0.9 0.00 0.00 0.00 1010.1
20260505014214 0 334 0.0 0.0 0.00 0.00 0.00 1010.2
20260505013711 0 330 0.0 0.0 0.00 0.00 0.00 1010.1
20260505013208 0 342 0.0 0.9 0.00 0.00 0.00 1010.3
20260505012706 0 336 0.0 0.9 0.00 0.00 0.00 1010.4
20260505012203 0 334 0.0 1.7 0.00 0.00 0.00 1010.3
20260505011659 0 335 0.9 0.9 0.00 0.00 0.00 1010.4
20260505011156 0 338 0.0 1.7 0.00 0.00 0.00 1010.4
20260505010651 0 337 0.9 2.6 0.00 0.00 0.00 1010.5
20260505010148 0 338 0.0 1.7 0.00 0.00 0.00 1010.4
20260505005644 0 332 0.0 0.9 0.00 0.00 0.00 1010.6
20260505005142 0 334 0.9 0.9 0.00 0.00 0.00 1010.6
20260505004639 0 351 0.9 1.7 0.00 0.00 0.00 1010.5
20260505004135 0 338 0.9 1.7 0.00 0.00 0.00 1010.5
20260505003632 0 335 0.9 0.9 0.00 0.00 0.00 1010.5
20260505003130 0 334 0.9 0.9 0.00 0.00 0.00 1010.4
20260505002626 0 328 0.9 0.9 0.00 0.00 0.00 1010.5
20260505002124 0 339 0.9 0.9 0.00 0.00 0.00 1010.6
20260505001621 0 334 0.9 0.9 0.00 0.00 0.00 1010.6
20260505001119 0 339 0.9 1.7 0.00 0.00 0.00 1010.4
20260505000615 0 330 0.9 1.7 0.00 0.00 0.00 1010.6
20260505000114 0 328 1.7 1.7 0.00 0.00 0.00 1010.5
20260504235609 0 338 0.9 1.7 0.00 0.00 0.00 1010.3
20260504235106 0 297 0.9 2.6 0.00 0.00 0.00 1010.5
20260504234603 0 336 0.9 2.6 0.00 0.00 0.00 1010.5
20260504234101 0 336 0.9 2.6 0.00 0.00 0.00 1010.4
20260504233556 0 338 0.9 1.7 0.00 0.00 0.00 1010.8
20260504233052 0 335 0.9 1.7 0.00 0.00 0.00 1010.6
20260504232550 0 344 0.9 1.7 0.00 0.00 0.00 1010.4
20260504232047 0 339 0.9 1.7 0.00 0.00 0.00 1010.4
20260504231544 0 340 1.7 4.3 0.00 0.00 0.00 1010.5
20260504231040 0 332 0.9 1.7 0.00 0.00 0.00 1010.5
20260504230536 0 329 1.7 2.6 0.00 0.00 0.00 1010.4
20260504230035 0 336 0.9 1.7 0.00 0.00 0.00 1010.5
20260504225532 0 331 1.7 1.7 0.00 0.00 0.00 1010.6
20260504225029 0 340 0.9 4.3 0.00 0.00 0.00 1010.6
20260504224525 0 150 1.7 2.6 0.00 0.00 0.00 1010.6
20260504224023 0 337 0.9 1.7 0.00 0.00 0.00 1010.7
20260504223519 0 343 0.9 1.7 0.00 0.00 0.00 1010.6
20260504223015 0 330 0.9 1.7 0.00 0.00 0.00 1010.6
20260504222512 0 343 1.7 2.6 0.00 0.00 0.00 1010.8
20260504222010 0 324 0.9 1.7 0.00 0.00 0.00 1010.7
20260504221507 0 336 0.9 2.6 0.00 0.00 0.00 1010.8
20260504221004 0 347 1.7 1.7 0.00 0.00 0.00 1010.7
20260504220500 0 328 0.9 1.7 0.00 0.00 0.00 1010.7
20260504215957 0 328 0.9 2.6 0.00 0.00 0.00 1010.8
20260504215454 0 332 0.9 1.7 0.00 0.00 0.00 1011.0
20260504214950 0 325 1.7 2.6 0.00 0.00 0.00 1010.8
20260504214447 0 337 1.7 2.6 0.00 0.00 0.00 1010.7
20260504213943 0 316 1.7 1.7 0.00 0.00 0.00 1010.9
20260504213439 0 334 1.7 2.6 0.00 0.00 0.00 1010.9
20260504212937 0 333 0.9 1.7 0.00 0.00 0.00 1010.9
20260504212432 0 338 1.7 2.6 0.00 0.00 0.00 1011.0
20260504211931 0 10 0.9 1.7 0.00 0.00 0.00 1010.9
20260504211427 0 337 1.7 2.6 0.00 0.00 0.00 1010.9
20260504210924 0 340 0.9 1.7 0.00 0.00 0.00 1011.0
20260504210421 0 344 1.7 2.6 0.00 0.00 0.00 1011.0
20260504205918 0 331 1.7 1.7 0.00 0.00 0.00 1011.1
20260504205416 0 335 2.6 2.6 0.00 0.00 0.00 1010.9
20260504204914 0 320 1.7 2.6 0.00 0.00 0.00 1010.8
20260504204412 0 308 1.7 1.7 0.00 0.00 0.00 1011.0
20260504203911 0 348 0.9 1.7 0.00 0.00 0.00 1010.8
20260504203408 0 286 0.9 2.6 0.00 0.00 0.00 1010.8
20260504202903 0 336 0.9 1.7 0.00 0.00 0.00 1010.9
20260504202400 0 353 0.9 1.7 0.00 0.00 0.00 1010.9
20260504201857 0 346 0.9 1.7 0.00 0.00 0.00 1010.7
20260504201355 0 327 0.9 1.7 0.00 0.00 0.00 1010.9
20260504200852 0 332 1.7 4.3 0.00 0.00 0.00 1010.7
20260504200349 0 316 0.9 2.6 0.00 0.00 0.00 1011.0
20260504195845 0 346 2.6 4.3 0.00 0.00 0.00 1010.8
20260504195340 0 331 1.7 2.6 0.00 0.00 0.00 1010.9
20260504194837 0 337 0.9 2.6 0.00 0.00 0.00 1010.9
20260504194333 0 15 1.7 2.6 0.00 0.00 0.00 1010.8
20260504193829 0 0 1.7 2.6 0.00 0.00 0.00 1010.9
20260504193327 0 3 2.6 2.6 0.00 0.00 0.00 1010.9
20260504192826 0 286 1.7 2.6 0.00 0.00 0.00 1010.9
20260504192323 0 14 1.7 2.6 0.00 0.00 0.00 1010.9
20260504191822 0 333 0.9 2.6 0.00 0.00 0.00 1010.8
20260504191319 0 330 0.9 2.6 0.00 0.00 0.00 1011.0
20260504190814 0 300 1.7 2.6 0.00 0.00 0.00 1011.1
20260504190310 0 351 0.9 1.7 0.00 0.00 0.00 1010.9
20260504185807 0 338 0.9 4.3 0.00 0.00 0.00 1011.0
20260504185305 0 269 1.7 1.7 0.00 0.00 0.00 1010.9
20260504184800 0 324 0.9 1.7 0.00 0.00 0.00 1010.9
20260504184256 0 322 0.9 1.7 0.00 0.00 0.00 1011.1
20260504183752 0 6 0.9 2.6 0.00 0.00 0.00 1011.0
20260504183249 0 334 1.7 1.7 0.00 0.00 0.00 1010.8
20260504182747 0 334 0.9 1.7 0.00 0.00 0.00 1010.9
20260504182244 0 344 0.9 1.7 0.00 0.00 0.00 1010.8
20260504181742 0 293 0.9 1.7 0.00 0.00 0.00 1010.6
20260504181239 0 333 0.9 1.7 0.00 0.00 0.00 1010.7
20260504180738 0 338 1.7 1.7 0.00 0.00 0.00 1010.8
20260504180236 0 348 0.9 1.7 0.00 0.00 0.00 1010.6
20260504175733 0 354 0.9 2.6 0.00 0.00 0.00 1010.9
20260504175230 0 331 1.7 1.7 0.00 0.00 0.00 1010.7
20260504174728 0 120 1.7 1.7 0.00 0.00 0.00 1011.0
20260504174226 0 1 1.7 2.6 0.00 0.00 0.00 1010.8
20260504173722 0 338 1.7 4.3 0.00 0.00 0.00 1010.9
20260504173219 0 348 0.9 1.7 0.00 0.00 0.00 1010.6
20260504172715 0 357 1.7 1.7 0.00 0.00 0.00 1010.7
20260504172212 0 345 0.9 2.6 0.00 0.00 0.00 1010.5
20260504171709 0 331 0.0 1.7 0.00 0.00 0.00 1010.7
20260504171206 0 340 0.9 1.7 0.00 0.00 0.00 1010.5
20260504170702 0 9 0.9 1.7 0.00 0.00 0.00 1010.5
20260504170200 0 333 0.9 1.7 0.00 0.00 0.00 1010.7
20260504160118 0 353 1.7 1.7 0.00 0.00 0.00 1010.3
20260504151045 0 338 0.9 1.7 0.00 0.00 0.00 1009.9
20260504150543 0 348 0.9 0.9 0.00 0.00 0.00 1010.0
20260504141009 0 340 0.9 0.9 0.00 0.00 0.00 1009.4
20260504140505 0 328 0.0 0.0 0.00 0.00 0.00 1009.5
20260504130430 0 338 0.0 0.9 0.00 0.00 0.00 1009.0
20260504110317 0 338 0.9 1.7 0.00 0.00 0.00 1008.3
20260504100234 0 12 0.9 2.6 0.00 0.00 0.00 1008.1
20260504081628 0 346 0.0 1.7 0.00 0.00 0.00 1007.8
20260504081124 0 357 0.9 2.6 0.00 0.00 0.00 1007.5
20260504080621 0 353 0.9 1.7 0.00 0.00 0.00 1007.6
20260504080117 0 334 0.0 0.9 0.00 0.00 0.00 1007.4